VK5GR-12 Weather Reports


Display with metric or nautical units.
time (UTC)temp
F
wind
direction
speed
MPH
gust
MPH
rain 1hr
in
rain 24hr
in
rain mn
in
humidity
%
barometer
mb
20260504004256 60 280 2.0 2.0 0.00 0.39 0.39 85 1014.4
20260504002751 59 283 1.0 1.0 0.00 0.39 0.39 87 1014.2
20260504001248 60 293 3.0 4.0 0.00 0.39 0.39 86 1014.2
20260503235746 59 336 4.0 6.0 0.00 0.39 0.39 89 1013.9
20260503234245 59 3 5.0 7.0 0.05 0.39 0.39 89 1013.7
20260503232740 59 324 3.0 4.0 0.00 0.38 0.38 89 1013.6
20260503231238 58 322 2.0 4.0 0.00 0.38 0.38 92 1013.3
20260503225735 57 335 1.0 2.0 0.00 0.38 0.38 93 1013.2
20260503224236 57 303 2.0 2.0 0.00 0.38 0.38 93 1013.1
20260503222732 57 300 5.0 6.0 0.07 0.38 0.38 93 1012.6
20260503221231 57 284 2.0 3.0 0.00 0.37 0.37 93 1012.6
20260503215727 57 308 2.0 3.0 0.00 0.37 0.37 93 1012.4
20260503214224 57 311 1.0 1.0 0.00 0.37 0.37 93 1012.2
20260503212722 57 318 3.0 4.0 0.00 0.37 0.37 93 1012.3
20260503211219 57 300 2.0 3.0 0.07 0.36 0.36 92 1011.9
20260503205719 57 322 2.0 3.0 0.00 0.35 0.35 91 1011.6
20260503204216 57 336 3.0 3.0 0.00 0.35 0.35 91 1011.6
20260503202713 57 349 5.0 7.0 0.00 0.35 0.35 92 1011.4
20260503201212 57 312 4.0 4.0 0.00 0.35 0.35 93 1011.3
20260503195707 57 299 0.0 1.0 0.00 0.35 0.35 93 1011.2
20260503194202 57 338 4.0 4.0 0.00 0.35 0.35 93 1011.4
20260503192703 57 324 4.0 6.0 0.00 0.35 0.35 92 1011.3
20260503191158 57 343 5.0 6.0 0.00 0.32 0.32 89 1011.2
20260503185655 58 258 6.0 7.0 0.00 0.32 0.32 87 1011.0
20260503184154 57 339 3.0 4.0 0.00 0.32 0.32 89 1010.9
20260503182651 57 291 2.0 3.0 0.00 0.32 0.32 90 1011.0
20260503181149 57 340 3.0 3.0 0.00 0.32 0.32 92 1011.0
20260503175646 56 5 4.0 4.0 0.00 0.32 0.32 93 1011.1
20260503174143 56 301 3.0 4.0 0.00 0.32 0.32 94 1011.1
20260503172644 56 320 5.0 7.0 0.00 0.32 0.32 94 1011.3
20260503171140 56 292 1.0 1.0 0.00 0.32 0.32 94 1011.4
20260503131048 56 305 3.0 3.0 0.00 0.23 0.23 91 1012.4
20260503080954 60 333 1.0 2.0 0.00 0.16 0.16 77 1010.9
20260503072448 60 40 2.0 2.0 0.00 0.16 0.16 78 1010.8
20260503070944 60 56 2.0 2.0 0.00 0.16 0.16 76 1010.9
20260503053928 63 220 4.0 7.0 0.00 0.14 0.14 64 1010.6
20260503052425 65 322 7.0 11.0 0.00 0.14 0.14 59 1010.3
20260503050920 65 285 4.0 6.0 0.00 0.14 0.14 61 1010.2
20260503045417 66 12 6.0 10.0 0.00 0.14 0.14 59 1010.3
20260503043914 63 217 7.0 9.0 0.00 0.14 0.14 63 1010.2
20260503042409 64 38 6.0 9.0 0.00 0.14 0.14 63 1010.2
20260503040905 65 56 7.0 10.0 0.00 0.14 0.14 63 1010.3
20260503035402 64 303 7.0 8.0 0.00 0.14 0.14 62 1010.4
20260503033900 64 358 3.0 6.0 0.00 0.14 0.14 65 1010.6
20260503032400 64 341 3.0 7.0 0.00 0.14 0.14 65 1010.9
20260503030856 61 333 4.0 7.0 0.00 0.14 0.14 75 1010.7
20260503025353 62 18 5.0 8.0 0.00 0.14 0.14 68 1010.7
20260503023849 63 309 3.0 6.0 0.00 0.14 0.14 68 1011.0
20260503022349 61 337 3.0 6.0 0.00 0.14 0.14 71 1011.1
20260503020845 63 18 6.0 8.0 0.00 0.14 0.14 66 1011.0
20260503015343 61 344 4.0 7.0 0.00 0.14 0.14 69 1011.2
20260503013839 61 275 4.0 6.0 0.00 0.14 0.14 68 1011.1
20260503012337 62 24 5.0 6.0 0.00 0.14 0.14 68 1011.3
20260503010833 60 45 4.0 8.0 0.00 0.14 0.14 70 1011.4
20260503005331 61 10 4.0 7.0 0.00 0.14 0.14 70 1011.2